Location: Oshawa
(43.9000°N, 78.8670°W)
Time: 21:34:42
(UTC-04:00)

ITAMSAT 1 - Visible Passes

Search period start: 22 August 2014 00:00
Search period end: 01 September 2014 00:00
Orbit: 784 x 799 km, 98.7° (Epoch: 21 August)

Date Brightness Start Highest point End Pass type
(mag) Time Alt. Az. Time Alt. Az. Time Alt. Az.
22 Aug 7.5 03:37:14 10° NNE 03:42:26 81° ESE 03:43:03 69° S visible
22 Aug 9.5 05:18:25 10° NNW 05:21:16 15° WNW 05:23:48 11° W visible
23 Aug 8.4 03:08:20 10° NNE 03:13:17 44° E 03:13:31 44° ESE visible
23 Aug 8.9 04:48:20 10° N 04:52:32 26° WNW 04:54:16 21° W visible
24 Aug 9.3 02:39:48 10° NE 02:44:00 25° E 02:44:00 25° E visible
24 Aug 8.1 04:18:47 10° N 04:23:40 44° WNW 04:24:45 39° W visible
25 Aug 10.0 02:12:10 10° ENE 02:14:28 13° E 02:14:28 13° E visible
25 Aug 7.5 03:49:30 10° NNE 03:54:41 79° WNW 03:55:13 70° SW visible
25 Aug 9.7 05:31:29 10° NW 05:33:20 12° NW 05:35:11 10° WNW visible
26 Aug 8.0 03:20:28 10° NNE 03:25:35 57° E 03:25:41 57° ESE visible
26 Aug 9.1 05:00:55 10° NNW 05:04:40 21° WNW 05:06:26 17° W visible
27 Aug 9.0 02:51:46 10° NNE 02:56:10 31° E 02:56:10 31° E visible
27 Aug 8.4 04:31:12 10° N 04:35:51 35° WNW 04:36:54 32° W visible
28 Aug 9.8 02:23:37 10° NE 02:26:38 17° E 02:26:38 17° E visible
28 Aug 7.6 04:01:48 10° N 04:06:56 62° WNW 04:07:23 59° W visible
29 Aug 7.7 03:32:40 10° NNE 03:37:51 74° E 03:37:51 74° E visible
29 Aug 9.4 05:13:37 10° NNW 05:16:46 17° WNW 05:18:36 14° W visible
30 Aug 8.7 03:03:49 10° NNE 03:08:19 39° E 03:08:19 39° E visible
30 Aug 8.7 04:43:40 10° N 04:48:01 28° WNW 04:49:04 26° W visible
31 Aug 9.6 02:35:23 10° NE 02:38:47 22° E 02:38:47 22° E visible
31 Aug 7.9 04:14:09 10° N 04:19:08 49° WNW 04:19:32 48° W visible
